Ingeniero Juan Guillermo Villasana Airport

Jump to: basic info | weather | frequencies | runways | comments

Related pages: nearby airports | nearby navaids | notams | map

Basic information (top)

Codes: MMPC
Location: lon 20.077400, lat -98.782501, elev 7,600 ft / 2,316 m msl
Status: small_airport

Weather (top)

Current conditions for Licenciado Benito Juarez International Airport 42nm (77km) SSW (rec'd 2014/07/22 16:42Z):

MMMX 221642Z 03008KT 6SM FEW020 21/08 A3039 NOSIG RMK 8/100 HZY

Airport forecast for Licenciado Benito Juarez International Airport 42nm (77km) SSW (rec'd 2014/07/21 00:42Z):

TAF COR MMMX 210035Z 2100/2206 36009KT P6SM SCT020 BKN080 TX26/2121Z TN14/2112Z 
      TEMPO 2100/2104 08015G34KT 4SM TSRA BKN020CB 
     FM210600 02005KT P6SM SCT020 SCT080 
     FM211800 12012KT P6SM BKN025CB BKN250 
     FM220500 02005KT P6SM SCT080

Frequencies (top)

Verify before use: may be inaccurate or out of date.

AFIS: 122.9 MHz (AFIS)

Runways (top)

03/21: 6,825 x 85 ft (2,080 x 26 m) — paved — not lighted — threshold 03 displaced 656 ft (200 m) — threshold 21 displaced 865 ft (264 m)

Latest comments (top)

No comments yet for Ingeniero Juan Guillermo Villasana Airport

More... (top)

See also NOTAMs and nearby airports and navaids, or visit the Ingeniero Juan Guillermo Villasana Airport page at the main OurAirports website..